Powrót do katalogu

STARLINK-3290

AktywnyŁącznośćVLEO
NORAD 50828·PAYLOAD·🇺🇸 United States

Wystrzelony Jan 6, 2022 z Cape Canaveral Space Force Station

Loading…

Następne Przeloty (najbliższe 24 godziny)

TLE

ŚwieżeSource: CelesTrak SupGP

Epoka: Sep 15, 2026, 02:20 UTC

1 50828C 22001AB  26258.09770833 -.00043828  00000+0 -14096-2 0  2584
2 50828  53.1593  28.9562 0001067  85.7316 147.7150 15.31720611    10

Śledź STARLINK-3290 w czasie rzeczywistym z AllMySat

Download on the App Store